Find Kosmos-763

NORAD ID: 8287 Int'l Des: 1975-086 Owner: GUKOSR Country: SU operational
LEOCIRCULAR

实时位置

正在加载3D地球...

关于 Kosmos-763

正在加载描述...

即将过境

Passes for default location (London). Set your location on the main map for personalized predictions.

高度历史

Loading altitude history...

两行轨道根数

1 08287U 75086C 26107.01765082 .00000003 00000-0 13318-3 0 9998
2 08287 74.0086 310.1441 0023004 191.1185 324.7025 12.43562907296156
Epoch: Apr 17, 2026 • Age: 15 hours

当前状态

高度 1485.2 km
速度 7.13 km/s
星下点 39.06°N, 33.44°E
类型 other

Most Searched